EW1479 Weather Reports


Display with metric or nautical units.
time (UTC)temp
F
wind
direction
speed
MPH
gust
MPH
rain 1hr
in
rain 24hr
in
rain mn
in
humidity
%
barometer
mb
20260504184851 71 241 9.0 15.0 0.00 0.00 0.00 40 1009.4
20260504183317 71 248 8.0 14.0 0.00 0.00 0.00 40 1009.7
20260504181830 71 278 7.0 16.0 0.00 0.00 0.00 43 1009.8
20260504180329 70 241 7.0 12.0 0.00 0.00 0.00 49 1009.9
20260504174830 69 232 5.0 16.0 0.00 0.00 0.00 49 1009.9
20260504173332 69 203 7.0 17.0 0.00 0.00 0.00 48 1010.1
20260504171817 69 239 6.0 12.0 0.00 0.00 0.00 49 1010.1
20260504170331 68 248 8.0 15.0 0.00 0.00 0.00 48 1010.4
20260504160327 65 215 8.0 13.0 0.00 0.00 0.00 51 1010.9
20260504150331 62 228 8.0 14.0 0.00 0.00 0.00 53 1011.3
20260504140348 59 246 8.0 16.0 0.00 0.00 0.00 55 1011.5
20260504130333 56 242 10.0 14.0 0.00 0.00 0.00 56 1012.0
20260504110314 51 217 5.0 11.0 0.00 0.00 0.00 61 1012.1
20260504100339 50 212 7.0 11.0 0.00 0.00 0.00 61 1011.9
20260504081814 50 219 4.0 10.0 0.00 0.00 0.00 60 1012.8
20260504080322 51 240 4.0 10.0 0.00 0.00 0.00 60 1012.8
20260504070321 50 245 3.0 7.0 0.00 0.00 0.00 63 1013.2
20260504050323 51 242 4.0 7.0 0.00 0.00 0.00 61 1013.6
20260504044824 51 220 3.0 7.0 0.00 0.00 0.00 58 1013.7
20260504043318 52 242 3.0 7.0 0.00 0.00 0.00 59 1013.8
20260504041825 52 246 6.0 9.0 0.00 0.00 0.00 58 1013.8
20260504040318 52 217 6.0 8.0 0.00 0.00 0.00 58 1013.8
20260504034810 52 219 4.0 8.0 0.00 0.00 0.00 58 1013.7
20260504033328 52 226 5.0 12.0 0.00 0.00 0.00 59 1013.8
20260504031815 52 226 5.0 8.0 0.00 0.00 0.00 60 1013.8
20260504030311 53 220 4.0 7.0 0.00 0.00 0.00 59 1013.8
20260504024817 53 233 4.0 7.0 0.00 0.00 0.00 58 1013.8
20260504023330 54 231 5.0 13.0 0.00 0.00 0.00 55 1013.9
20260504021822 55 264 6.0 21.0 0.00 0.00 0.00 53 1014.1
20260504020328 55 252 7.0 20.0 0.00 0.00 0.00 54 1013.9
20260504014824 55 278 10.0 18.0 0.00 0.00 0.00 54 1014.2
20260504013312 55 273 6.0 12.0 0.00 0.00 0.00 51 1014.2
20260504011826 55 267 7.0 17.0 0.00 0.00 0.00 52 1013.9
20260504010315 55 263 9.0 19.0 0.00 0.00 0.00 52 1014.1
20260504004825 55 250 12.0 24.0 0.00 0.00 0.00 51 1014.2
20260504003315 55 264 12.0 19.0 0.00 0.00 0.00 51 1014.3
20260504001826 55 273 12.0 27.0 0.00 0.00 0.00 49 1014.4
20260504000311 55 243 7.0 18.0 0.00 0.00 0.00 49 1014.3
20260503234824 54 274 6.0 16.0 0.00 0.00 0.00 49 1014.2
20260503233320 55 289 12.0 20.0 0.00 0.00 0.00 48 1014.2
20260503231810 55 284 17.0 25.0 0.00 0.00 0.00 46 1014.1
20260503230343 56 291 13.0 24.0 0.00 0.00 0.00 47 1014.1
20260503224834 56 275 14.0 27.0 0.00 0.00 0.00 46 1013.9
20260503223322 57 307 11.0 25.0 0.00 0.00 0.00 43 1013.6
20260503221835 57 275 7.0 16.0 0.00 0.00 0.00 44 1013.5
20260503220324 57 275 10.0 18.0 0.00 0.00 0.00 43 1013.6
20260503214836 57 250 7.0 20.0 0.00 0.00 0.00 43 1013.4
20260503213324 57 256 14.0 23.0 0.00 0.00 0.00 40 1013.4
20260503211820 58 270 10.0 23.0 0.00 0.00 0.00 42 1013.3
20260503210354 59 253 10.0 19.0 0.00 0.00 0.00 42 1013.3
20260503204841 58 290 9.0 15.0 0.00 0.00 0.00 44 1013.5
20260503203311 57 293 11.0 22.0 0.00 0.00 0.00 43 1013.6
20260503201843 57 269 5.0 8.0 0.00 0.00 0.00 46 1013.9
20260503200311 55 272 4.0 11.0 0.00 0.00 0.00 48 1014.1
20260503194823 55 250 5.0 9.0 0.00 0.00 0.00 45 1014.4
20260503193313 54 287 6.0 12.0 0.00 0.00 0.00 46 1014.7
20260503191824 54 252 3.0 14.0 0.00 0.00 0.00 49 1014.9
20260503190338 54 260 5.0 10.0 0.00 0.00 0.00 48 1015.1